Weather reports worldwide

Advertisment
Alt Ruppin, Germany (10271): temperature & dewpoint: 06.11.2019 16:00:00 - 12.11.2019 16:00:00 (CET)Alt Ruppin, Germany (10271): temperature 5cm & temperature -5cm: 06.11.2019 16:00:00 - 12.11.2019 16:00:00 (CET)Alt Ruppin, Germany (10271): temperature -20cm & temperature -100cm: 06.11.2019 16:00:00 - 12.11.2019 16:00:00 (CET)Alt Ruppin, Germany (10271): wind speed & gusts: 06.11.2019 16:00:00 - 12.11.2019 16:00:00 (CET)Alt Ruppin, Germany (10271): wind direction: 06.11.2019 16:00:00 - 12.11.2019 16:00:00 (CET)Alt Ruppin, Germany (10271): reduced air pressure: 06.11.2019 16:00:00 - 12.11.2019 16:00:00 (CET)Alt Ruppin, Germany (10271): visibility: 06.11.2019 16:00:00 - 12.11.2019 16:00:00 (CET)Alt Ruppin, Germany (10271): precipitation: 06.11.2019 16:00:00 - 12.11.2019 16:00:00 (CET)
Date & Time tt [°C] td [°C] tt 5cm [°C] tt -5cm [°C] tt -20cm [°C] tt -100cm [°C] ff [km/h] ff [kn] fx [km/h] fx [kn] dd ppp [hPa] vv [km] rr [mm]
12.11.2019 16:00:00 5,7 2,2 4,1 6,2 6,4 9,9 9 5 21 12 SSE 1005,3 36 0,0
12.11.2019 15:00:00 6,6 2,3 6,2 7,2 6,2 10,0 11 6 23 12 S 1005,5 31 0,0
12.11.2019 14:00:00 7,3 2,8 9,2 7,6 5,9 10,0 9 5 21 11 S 1004,7 28 0,0
12.11.2019 13:00:00 7,2 2,8 9,5 7,1 5,5 10,0 10 5 24 13 S 1005,8 29 0,0
12.11.2019 12:00:00 6,4 2,5 8,4 5,9 5,2 10,0 9 5 17 9 S 1006,0 21 0,0
12.11.2019 11:00:00 4,8 1,9 5,4 4,0 5,1 10,0 9 5 16 9 S 1006,3 18 0,0
12.11.2019 10:00:00 3,7 1,8 3,0 3,6 5,0 10,1 7 4 16 9 S 1006,4 14 0,0
12.11.2019 09:00:00 2,9 1,5 2,2 3,0 5,0 10,1 7 4 15 8 S 1006,2 12 0,0
12.11.2019 08:00:00 2,1 1,0 1,4 2,6 5,0 10,1 6 3 13 7 S 1005,9 10 0,0
12.11.2019 07:00:00 1,3 0,2 0,5 2,3 5,0 10,1 6 4 14 8 S 1005,5 12 0,0
12.11.2019 06:00:00 0,8 -0,3 -0,1 2,3 5,1 10,1 5 3 10 6 SE 1005,1 8 0,0
12.11.2019 05:00:00 0,8 -0,2 -0,7 2,6 5,1 10,1 4 2 9 5 SSE 1005,1 8 0,0
12.11.2019 04:00:00 1,0 -0,2 0,7 2,6 5,1 10,1 5 3 12 7 SE 1005,4 10 0,0
12.11.2019 03:00:00 1,0 -0,5 0,2 2,4 5,2 10,2 6 3 16 8 SSE 1005,4 11 0,0
12.11.2019 02:00:00 0,6 -0,6 -0,4 2,0 5,3 10,2 6 3 19 10 SSE 1005,6 10 0,0
12.11.2019 01:00:00 0,8 -0,8 -0,5 2,2 5,4 10,2 10 6 17 9 SE 1005,5 11 0,0
12.11.2019 00:00:00 0,9 -0,5 -0,9 2,2 5,5 10,2 5 3 17 9 SSE 1006,1 11 0,0
11.11.2019 23:00:00 1,2 -0,4 -0,2 2,3 5,7 10,2 8 4 22 12 SSE 1006,6 12 0,0
11.11.2019 22:00:00 1,5 -0,3 -0,3 2,4 5,8 10,2 11 6 26 14 SSE 1006,7 16 0,0
11.11.2019 21:00:00 1,7 -0,2 -0,3 2,6 6,0 10,2 11 6 25 14 SSE 1007,0 22 0,0
11.11.2019 20:00:00 2,7 0,2 0,8 2,8 6,2 10,2 11 6 20 11 SSE 1007,6 26 0,0
11.11.2019 19:00:00 2,4 1,2 0,8 3,1 6,4 10,3 9 5 16 9 SE 1007,8 16 0,0
11.11.2019 18:00:00 2,5 1,4 0,8 3,4 6,6 10,3 8 4 14 8 ESE 1007,9 15 0,0
11.11.2019 17:00:00 2,2 1,4 0,0 4,0 6,8 10,3 7 4 10 5 ESE 1008,4 7 0,0
11.11.2019 16:00:00 3,2 1,5 1,8 5,0 6,8 10,3 6 3 13 7 ESE 1009,2 12 0,0
11.11.2019 15:00:00 3,4 1,5 3,2 5,5 6,9 10,3 7 4 14 7 SSE 1010,3 15 0,0
11.11.2019 14:00:00 2,3 1,0 2,8 6,0 6,8 10,3 9 5 21 11 SSE 1010,9 10 0,0
11.11.2019 13:00:00 1,8 1,0 2,7 5,7 6,8 10,3 8 4 21 11 SSE 1011,5 7 0,0
11.11.2019 12:00:00 1,2 0,5 2,0 5,5 6,8 10,3 11 6 23 13 SSE 1012,1 5 0,0
11.11.2019 11:00:00 1,3 0,9 2,2 5,4 6,8 10,3 10 6 23 12 S 1012,8 4,2 0,0
11.11.2019 10:00:00 2,0 2,0 2,7 5,4 6,8 10,3 8 4 19 10 SSE 1012,5 0,4 0,0
11.11.2019 09:00:00 2,4 2,2 2,9 5,2 6,8 10,4 8 5 17 9 SSE 1013,3 0,4 0,0
11.11.2019 08:00:00 2,7 2,6 2,9 5,1 6,8 10,4 6 4 17 9 SE 1013,8 1,3 0,0
11.11.2019 07:00:00 2,5 2,4 2,8 5,1 6,9 10,4 6 4 14 8 SE 1014,2 0,4 0,0
11.11.2019 06:00:00 2,7 2,6 2,9 5,2 6,9 10,4 7 4 13 7 SSE 1014,4 0,8 0,0
11.11.2019 05:00:00 2,8 2,7 3,0 5,2 7,0 10,4 4 2 11 6 SSE 1014,7 0,8 0,0
11.11.2019 04:00:00 2,8 2,8 3,0 5,1 7,0 10,4 5 3 11 6 SSE 1014,8 0,3 0,0
11.11.2019 03:00:00 2,1 2,1 2,4 5,1 7,1 10,4 5 3 14 7 ESE 1015,2 0,2 0,0
11.11.2019 02:00:00 1,8 1,8 2,1 5,1 7,2 10,4 5 3 15 8 ESE 1015,4 0,2 0,0
11.11.2019 01:00:00 1,2 1,2 1,6 5,4 7,3 10,4 8 4 12 7 ESE 1015,5 0,2 0,0
11.11.2019 00:00:00 1,9 1,8 2,4 5,8 7,4 10,4 6 3 10 5 ESE 1015,6 0,2 0,0
10.11.2019 23:00:00 2,8 2,7 3,2 5,9 7,4 10,5 4 2 8 5 SSE 1016,0 0,2 0,0
10.11.2019 22:00:00 3,3 3,1 3,6 6,1 7,5 10,5 3 2 6 4 S 1016,1 0,2 0,0
10.11.2019 21:00:00 3,3 3,1 3,7 6,1 7,5 10,5 5 3 8 5 SSW 1016,0 0,2 0,0
10.11.2019 20:00:00 3,4 3,3 3,7 6,2 7,6 10,5 3 2 5 3 SSE 1016,1 0,2 0,0
10.11.2019 19:00:00 3,5 3,3 3,8 6,4 7,6 10,5 2 1 6 3 SSE 1016,0 0,3 0,0
10.11.2019 18:00:00 3,8 3,7 4,1 6,6 7,7 10,5 3 1 7 4 WSW 1016,0 0,5 0,0
10.11.2019 17:00:00 3,6 3,6 4,0 6,8 7,7 10,5 5 3 8 4 ESE 1015,7 0,3 0,0
10.11.2019 16:00:00 4,0 3,8 4,4 7,2 7,7 10,5 3 1 11 6 SE 1015,2 0,4 0,0
10.11.2019 15:00:00 4,6 4,4 5,2 7,7 7,6 10,6 2 1 9 5 SSE 1015,0 0,9 0,0
10.11.2019 14:00:00 4,4 4,1 5,7 8,0 7,4 10,6 3 2 9 5 SSE 1014,6 0,5 0,0
10.11.2019 13:00:00 4,6 4,3 5,7 7,9 7,2 10,6 4 2 7 4 ESE 1014,3 0,3 0,0
10.11.2019 12:00:00 4,3 4,1 5,7 7,4 7,0 10,6 3 2 5 3 SE 1013,9 0,4 0,0
10.11.2019 11:00:00 3,3 3,1 4,9 6,4 6,8 10,6 2 1 8 4 NNE 1013,9 0,3 0,0
10.11.2019 10:00:00 2,7 2,7 4,0 5,6 6,7 10,6 4 2 7 4 NW 1013,6 0,2 0,0
10.11.2019 09:00:00 1,7 1,6 2,2 4,8 6,7 10,6 1 1 5 3 SE 1013,2 0,1 0,0
10.11.2019 08:00:00 1,8 1,6 2,0 4,4 6,8 10,6 2 1 4 2 ENE 1012,7 0,1 0,0
10.11.2019 07:00:00 1,3 1,1 1,1 4,0 6,9 10,6 4 2 5 3 SSE 1012,3 0,2 0,0
10.11.2019 06:00:00 1,7 1,4 -0,6 4,1 7,1 10,6 2 1 6 3 NE 1011,5 0,5 0,0
10.11.2019 05:00:00 3,1 2,8 0,6 4,6 7,2 10,6 2 1 6 4 ESE 1011,2 2,6 0,0
10.11.2019 04:00:00 4,2 3,7 1,6 5,1 7,3 10,6 4 2 7 4 W 1010,6 6 0,0
10.11.2019 03:00:00 4,0 3,8 2,8 5,4 7,3 10,7 3 2 5 3 SW 1010,5 4,3 0,0
10.11.2019 02:00:00 4,0 3,7 3,6 5,4 7,4 10,7 2 1 6 3 SE 1010,2 4,5 0,0
10.11.2019 01:00:00 4,0 3,7 3,4 5,2 7,5 10,7 0 0 4 2 N 1010,1 7 0,0
10.11.2019 00:00:00 3,7 3,4 2,4 4,9 7,6 10,7 3 1 7 4 S 1009,9 6 0,0
09.11.2019 23:00:00 4,1 3,8 1,7 5,1 7,8 10,7 3 1 9 5 SW 1009,5 6 0,0
09.11.2019 22:00:00 5,0 4,5 3,9 5,6 7,9 10,7 5 3 10 5 SSW 1009,3 11 0,0
09.11.2019 21:00:00 4,0 3,7 1,3 5,2 8,1 10,7 3 1 11 6 SW 1008,8 4,7 0,0
09.11.2019 20:00:00 5,1 4,3 2,5 6,0 8,3 10,7 5 3 17 9 SW 1008,4 17 0,0
09.11.2019 19:00:00 6,0 4,5 4,2 6,8 8,4 10,7 8 5 16 8 WSW 1008,3 30 0,0
09.11.2019 18:00:00 6,5 5,1 5,7 7,2 8,5 10,7 8 4 19 10 W 1008,2 36 0,0
09.11.2019 17:00:00 6,9 5,3 6,2 7,6 8,6 10,7 9 5 18 10 W 1007,7 32 0,0
09.11.2019 16:00:00 7,0 5,6 6,5 8,0 8,6 10,7 7 4 17 9 W 1007,1 22 0,0
09.11.2019 15:00:00 6,9 5,6 6,6 8,1 8,6 10,7 10 6 21 12 W 1006,7 19 0,0
09.11.2019 14:00:00 7,2 6,1 7,0 8,3 8,5 10,7 11 6 21 12 W 1006,3 10 0,2
09.11.2019 13:00:00 7,7 6,7 7,6 8,3 8,5 10,7 7 4 19 11 W 1005,6 5 0,0
09.11.2019 12:00:00 7,7 6,7 7,7 8,4 8,4 10,7 8 4 19 10 WNW 1005,5 8 0,0
09.11.2019 11:00:00 7,3 6,6 7,3 7,9 8,4 10,7 7 4 17 9 W 1005,8 4,4 0,0
09.11.2019 10:00:00 7,2 6,7 7,3 7,8 8,3 10,7 8 4 16 9 WNW 1006,1 3,8 0,0
09.11.2019 09:00:00 7,3 7,0 7,2 7,7 8,3 10,8 9 5 14 8 W 1005,8 1,4 0,0
09.11.2019 08:00:00 7,3 6,7 7,1 7,7 8,3 10,8 5 3 10 6 NW 1005,2 4,2 0,1
09.11.2019 07:00:00 7,3 6,8 7,1 7,6 8,3 10,8 5 3 8 4 NNW 1005,1 3,0 0,7
09.11.2019 06:00:00 7,4 6,8 7,1 7,6 8,3 10,8 4 2 10 6 NNW 1005,0 4,0 0,1
09.11.2019 05:00:00 7,3 6,7 7,1 7,6 8,3 10,8 5 3 13 7 N 1004,8 2,2 0,0
09.11.2019 04:00:00 7,4 6,8 7,0 7,5 8,3 10,8 6 3 14 8 N 1005,0 4,9 0,0
09.11.2019 03:00:00 7,3 6,7 7,0 7,5 8,2 10,8 9 5 17 9 N 1005,0 4,2 0,1
09.11.2019 02:00:00 7,2 6,6 6,9 7,4 8,2 10,8 8 4 17 9 N 1005,4 3,3 0,0
09.11.2019 01:00:00 7,2 6,6 6,8 7,4 8,3 10,8 8 5 22 12 NNE 1005,6 3,9 0,1
09.11.2019 00:00:00 7,2 6,7 6,8 7,4 8,3 10,8 11 6 20 11 N 1005,7 5 0,3
08.11.2019 23:00:00 7,1 6,5 6,7 7,4 8,3 10,8 8 4 16 8 N 1006,5 2,6 0,3
08.11.2019 22:00:00 7,0 6,5 6,6 7,3 8,3 10,8 9 5 17 9 N 1006,9 4,2 0,1
08.11.2019 21:00:00 6,9 6,4 6,5 7,3 8,3 10,9 5 3 17 9 NNE 1007,2 6 0,0
08.11.2019 20:00:00 6,8 6,2 6,5 7,3 8,4 10,9 12 7 21 11 N 1006,9 9 0,0
08.11.2019 19:00:00 6,9 6,1 6,3 7,4 8,4 10,9 9 5 18 10 N 1007,3 15 0,5
08.11.2019 18:00:00 7,1 6,2 6,6 7,7 8,4 10,9 8 5 18 10 N 1007,3 6 1,3
08.11.2019 17:00:00 7,6 5,6 6,9 7,8 8,4 10,9 7 4 13 7 N 1007,7 40 0,0
08.11.2019 16:00:00 7,9 5,7 7,2 8,2 8,4 10,9 6 4 11 6 N 1007,4 51 0,0
08.11.2019 15:00:00 8,4 6,0 8,1 8,6 8,2 10,9 4 2 11 6 NE 1007,8 53 0,0
08.11.2019 14:00:00 8,6 6,0 8,8 8,9 8,0 10,9 5 3 13 7 NE 1007,9 44 0,0
08.11.2019 13:00:00 8,1 5,5 8,2 8,6 7,8 10,9 5 3 11 6 ENE 1008,2 44 0,0
08.11.2019 12:00:00 7,5 5,9 8,2 8,0 7,5 10,9 4 2 6 4 N 1008,4 30 0,0
08.11.2019 11:00:00 5,9 5,0 6,4 6,8 7,4 10,9 3 1 5 3 NE 1008,8 15 0,0
08.11.2019 10:00:00 4,8 4,6 4,8 5,5 7,4 10,9 2 1 5 3 W 1008,9 9 0,0
08.11.2019 09:00:00 2,6 2,3 2,3 4,5 7,5 11,0 3 1 5 3 E 1008,7 13 0,0
08.11.2019 08:00:00 2,1 1,8 -0,2 4,2 7,7 11,0 2 1 6 3 NE 1008,3 11 0,0
08.11.2019 07:00:00 2,5 2,2 -0,5 4,4 8,0 11,0 3 2 6 3 ENE 1007,7 0,5 0,0
08.11.2019 06:00:00 3,3 2,9 -0,5 4,9 8,2 11,0 3 2 5 3 SE 1007,0 9 0,0
08.11.2019 05:00:00 4,5 3,8 0,0 5,6 8,4 11,0 2 1 7 4 SE 1006,9 12 0,0
08.11.2019 04:00:00 6,4 5,0 2,3 6,5 8,5 11,0 4 2 16 8 SSW 1006,4 32 0,0
08.11.2019 03:00:00 7,5 5,5 5,7 7,3 8,6 11,0 6 4 17 9 SSW 1006,1 34 0,0
08.11.2019 02:00:00 7,6 6,1 6,9 7,3 8,6 11,0 6 3 12 6 S 1005,8 31 0,0
08.11.2019 01:00:00 7,3 5,8 5,4 7,4 8,6 11,0 5 3 12 6 SSE 1004,8 30 0,0
08.11.2019 00:00:00 7,8 5,9 6,9 7,4 8,7 11,0 5 3 16 8 SSE 1004,7 34 0,0
07.11.2019 23:00:00 8,0 5,7 6,8 7,3 8,8 11,0 9 5 21 11 SSE 1004,2 38 0,0
07.11.2019 22:00:00 8,0 6,1 6,6 7,5 8,8 11,0 6 4 15 8 SSE 1004,1 34 0,0
07.11.2019 21:00:00 8,4 6,6 7,1 7,7 8,9 11,0 9 5 16 8 ESE 1003,6 31 0,0
07.11.2019 20:00:00 8,0 6,9 7,0 7,6 8,9 11,0 7 4 11 6 ESE 1003,6 19 0,0
07.11.2019 19:00:00 7,7 7,1 6,8 7,5 9,0 11,0 7 4 13 7 ESE 1003,6 6 0,0
07.11.2019 18:00:00 7,7 7,3 6,7 7,7 9,2 11,0 9 5 13 7 E 1003,3 4,2 0,0
07.11.2019 17:00:00 8,3 7,8 7,0 8,4 9,2 11,0 8 4 15 8 ESE 1003,2 4,1 0,0
07.11.2019 16:00:00 9,1 8,0 8,5 9,3 9,1 11,0 8 4 12 7 ESE 1003,0 8 0,0
07.11.2019 15:00:00 9,1 7,7 9,1 9,4 9,0 11,0 7 4 13 7 SE 1002,9 10 0,0
07.11.2019 14:00:00 8,6 7,4 9,1 9,2 8,9 11,0 7 4 16 9 ESE 1002,7 7 0,0
07.11.2019 13:00:00 7,6 7,0 8,2 8,8 8,8 11,0 7 4 14 8 ESE 1002,8 4,7 0,0
07.11.2019 12:00:00 7,3 6,5 7,7 8,5 8,7 11,0 6 3 13 7 E 1003,2 5 0,0
07.11.2019 11:00:00 7,0 6,4 7,4 8,2 8,7 11,1 4 2 11 6 E 1003,4 7 0,0
07.11.2019 10:00:00 6,5 5,9 6,7 7,8 8,7 11,1 4 2 8 4 ENE 1003,6 7 0,0
07.11.2019 09:00:00 6,1 5,6 6,2 7,5 8,7 11,1 4 2 12 6 E 1003,6 4,3 0,0
07.11.2019 08:00:00 5,7 5,1 5,8 7,3 8,7 11,1 3 1 6 3 NNE 1003,4 8 0,0
07.11.2019 07:00:00 5,5 5,0 5,6 7,3 8,7 11,1 4 2 8 5 N 1003,1 4,8 0,0
07.11.2019 06:00:00 5,8 5,0 5,6 7,3 8,8 11,1 3 2 6 4 S 1003,0 12 0,0
07.11.2019 05:00:00 5,8 5,0 5,0 7,3 8,9 11,1 2 1 9 5 W 1003,1 14 0,0
07.11.2019 04:00:00 6,0 5,6 5,4 7,4 8,9 11,1 2 1 6 4 S 1003,1 8 0,0
07.11.2019 03:00:00 5,9 5,5 5,7 7,4 9,0 11,1 2 1 7 4 SSE 1003,3 11 0,0
07.11.2019 02:00:00 5,6 5,1 4,7 7,3 9,1 11,1 2 1 10 5 S 1003,3 10 0,0
07.11.2019 01:00:00 5,8 5,1 5,4 7,4 9,2 11,0 3 2 10 5 SW 1003,4 12 0,0
07.11.2019 00:00:00 5,7 5,1 4,3 7,5 9,3 11,0 3 2 10 5 SSW 1003,3 15 0,0
06.11.2019 23:00:00 6,7 5,6 6,0 8,1 9,4 11,0 6 3 19 10 WSW 1003,1 30 0,0
06.11.2019 22:00:00 7,1 6,2 6,8 8,2 9,5 11,0 7 4 16 8 SW 1002,8 28 0,0
06.11.2019 21:00:00 7,2 6,8 6,3 8,3 9,6 11,0 3 1 6 4 S 1002,5 18 0,0
06.11.2019 20:00:00 6,9 6,5 6,1 8,3 9,7 11,0 3 1 7 4 SSW 1002,1 14 0,0
06.11.2019 19:00:00 7,3 6,5 6,1 8,8 9,8 11,0 3 1 6 4 W 1002,0 36 0,0
06.11.2019 18:00:00 7,5 6,7 7,1 9,0 9,9 11,0 3 1 8 4 WSW 1001,8 50 0,0
06.11.2019 17:00:00 7,5 6,2 7,0 9,3 10,0 11,0 4 2 7 4 W 1001,4 65 0,0
06.11.2019 16:00:00 7,7 5,8 7,5 9,9 10,0 11,0 5 3 14 8 W 1001,0 75 0,0

tt = temperature
td = dewpoint
tt 5cm = temperature 5cm
tt -5cm = temperature -5cm
tt -20cm = temperature -20cm
tt -100cm = temperature -100cm
ff = wind speed
fx = gusts
dd = wind direction
ppp = reduced air pressure
vv = visibility
rr = precipitation

Next stations